Probability
32 35 39 39 61 87 94 94 94 94 94 94 87 87 87 90 87 90 94 77 77 77 87 74 84 84 87 87 74 77 68 71 65 61 61 68 58 61 58 58 55 39 48
35 35 35 42 61 84 90 94 94 94 97 97 94 87 90 87 84 81 90 81 81 74 68 81 74 71 74 77 84 84 77 71 71 61 55 58 42 45 29 45 58 42 48
39 45 52 61 65 71 90 81 94 94 87 87 87 94 94 90 90 90 94 87 81 74 81 71 68 74 74 74 81 84 74 68 58 52 58 45 39 42 45 35 35 45 48
39 52 65 61 68 74 74 94 94 94 90 90 84 84 87 90 94 94 90 84 77 71 68 77 71 77 77 81 77 77 77 74 55 61 65 52 52 42 29 39 42 45 42
32 55 58 65 65 65 77 87 94 87 87 87 87 90 90 94 90 87 87 87 84 81 74 74 77 84 81 77 81 77 77 74 68 61 61 58 58 55 48 32 35 42 42
39 55 55 68 65 65 77 74 84 84 87 87 90 87 87 94 87 87 87 90 87 84 84 84 84 84 81 77 81 81 74 77 77 68 65 68 55 58 55 39 42 39 39
35 55 58 65 71 71 68 77 84 84 84 84 84 87 87 87 84 87 90 90 84 81 84 77 81 84 81 81 81 81 77 74 71 71 74 65 65 55 55 48 39 32 32
48 45 65 71 74 68 74 77 81 81 81 84 87 87 84 81 84 84 84 84 81 81 81 81 77 77 77 74 81 77 77 77 74 71 71 74 71 58 58 48 35 29 26
42 55 61 68 65 65 71 74 84 81 81 81 87 87 90 87 84 87 81 81 81 77 81 81 81 77 74 77 84 77 81 81 74 68 61 61 61 55 52 52 42 32 26
48 65 68 65 55 52 71 74 84 81 74 74 81 77 84 84 87 81 87 81 81 81 74 71 81 77 74 77 77 74 74 71 65 65 61 65 55 55 52 45 42 42 29
48 65 65 65 61 55 61 74 74 71 71 74 81 84 84 81 81 87 87 84 77 81 81 74 77 68 71 71 68 61 61 61 58 55 52 45 48 45 45 42 39 39 29
48 55 65 68 68 58 61 68 71 74 74 74 77 84 77 77 77 71 77 77 71 65 68 74 77 68 61 65 58 58 55 55 52 52 45 42 39 39 42 42 35 35 26
55 61 68 68 65 65 61 65 71 71 71 71 68 71 74 74 74 71 71 68 65 55 55 65 58 55 52 52 52 58 55 52 52 48 45 35 35 35 35 32 32 26 23
71 71 74 81 71 65 68 71 65 65 68 68 65 68 74 74 71 68 68 68 65 55 58 52 55 48 52 35 45 48 45 48 45 42 42 39 32 29 32 29 26 23 23
74 74 74 74 74 71 68 71 65 61 61 65 65 61 68 68 65 65 61 61 58 39 55 45 45 45 32 23 32 29 35 35 26 29 29 29 26 23 23 19 23 19 23
74 74 71 74 71 71 71 74 68 65 61 61 61 58 58 61 65 61 61 48 45 45 48 48 39 32 19 10 10 19 23 23 26 29 19 23 19 13 10 10 6 13 19
68 71 71 77 74 74 68 65 65 65 61 52 52 58 55 55 55 52 52 48 48 45 48 48 42 35 16 6 6 3 16 19 23 19 23 19 16 10 13 6 0 0 0
58 65 71 71 68 68 65 61 58 61 61 58 61 55 55 45 42 52 52 55 58 48 48 42 39 32 19 6 3 6 6 16 19 19 19 16 16 10 13 13 13 10 6
58 65 61 55 58 58 61 58 61 55 58 52 58 52 48 42 45 52 58 55 52 48 52 45 42 35 16 3 3 0 16 13 13 13 13 13 13 10 10 10 13 13 13
58 55 52 55 58 55 58 58 52 58 58 58 58 55 52 45 45 52 61 58 55 48 48 42 39 35 26 10 3 0 10 13 10 13 13 13 13 6 3 6 13 13 13
48 52 58 55 55 55 58 58 55 55 52 52 58 58 48 39 45 55 58 55 58 55 48 42 42 39 23 10 3 0 6 10 10 10 10 10 0 0 0 0 6 10 6
45 45 52 55 55 65 65 65 61 55 55 52 48 45 52 42 39 55 42 45 52 45 45 45 32 32 19 13 3 0 0 3 10 10 10 10 0 0 0 0 0 0 0
42 42 48 45 55 55 55 55 52 55 48 52 48 48 52 52 45 48 39 42 42 42 32 29 29 32 23 13 6 0 0 0 0 10 10 6 0 0 0 0 0 0 0
45 45 45 45 45 48 48 52 48 52 48 42 42 45 42 42 45 48 39 32 39 32 32 29 29 23 16 13 13 3 0 0 0 0 0 0 0 0 0 0 3 3 0
48 48 45 48 48 48 52 45 42 45 35 35 42 39 32 35 32 29 32 29 29 32 23 26 29 23 16 13 10 16 6 3 6 3 0 0 0 0 0 0 0 0 3
45 45 48 48 48 48 45 45 42 39 39 35 39 32 26 32 29 26 26 6 10 13 6 16 16 16 10 0 0 3 0 0 0 0 0 3 0 0 0 0 0 0 0
Height
5901 5899 5898 5896 5895 5894 5893 5892 5891 5891 5890 5889 5889 5888 5887 5886 5886 5885 5884 5884 5883 5882 5882 5881 5880 5880 5880 5880 5879 5879 5879 5879 5879 5878 5878 5878 5878 5879 5878 5878 5878 5878 5878
5902 5901 5900 5898 5897 5896 5895 5894 5893 5892 5891 5890 5890 5889 5888 5887 5886 5885 5884 5884 5883 5882 5882 5881 5880 5879 5879 5878 5878 5878 5878 5878 5878 5877 5877 5877 5877 5877 5876 5876 5876 5876 5876
5904 5903 5901 5900 5899 5897 5896 5895 5894 5893 5892 5891 5890 5889 5889 5888 5887 5886 5885 5884 5883 5882 5881 5880 5880 5879 5878 5878 5877 5877 5877 5876 5876 5876 5876 5875 5875 5874 5874 5873 5873 5873 5873
5905 5904 5902 5901 5900 5899 5898 5896 5895 5894 5893 5892 5891 5890 5889 5888 5887 5886 5885 5884 5883 5882 5881 5880 5879 5878 5878 5877 5876 5875 5875 5874 5874 5873 5873 5873 5872 5872 5872 5871 5871 5870 5870
5905 5904 5903 5902 5901 5899 5898 5897 5896 5895 5893 5892 5891 5890 5889 5888 5886 5885 5885 5884 5883 5882 5880 5879 5878 5877 5876 5876 5875 5874 5873 5872 5872 5871 5871 5870 5870 5869 5869 5868 5868 5867 5867
5904 5904 5903 5902 5901 5900 5898 5897 5896 5894 5893 5892 5891 5889 5888 5887 5886 5885 5884 5883 5882 5881 5880 5878 5877 5876 5874 5874 5873 5872 5871 5870 5869 5869 5868 5868 5867 5866 5866 5865 5864 5864 5863
5904 5903 5902 5901 5900 5899 5898 5897 5895 5894 5893 5891 5890 5889 5888 5887 5886 5884 5883 5882 5881 5880 5878 5877 5876 5874 5872 5871 5870 5869 5869 5868 5867 5866 5866 5865 5864 5863 5863 5862 5861 5860 5859
5903 5902 5901 5901 5899 5898 5897 5895 5894 5893 5892 5891 5890 5888 5887 5886 5884 5883 5882 5881 5879 5878 5877 5875 5874 5872 5870 5869 5868 5867 5866 5865 5864 5863 5863 5862 5861 5860 5859 5858 5857 5856 5856
5901 5901 5900 5899 5898 5896 5895 5893 5893 5892 5891 5890 5889 5887 5886 5884 5883 5882 5880 5879 5878 5876 5875 5873 5872 5870 5868 5867 5866 5865 5864 5863 5862 5861 5860 5859 5858 5857 5856 5855 5853 5853 5852
5899 5899 5898 5898 5896 5895 5893 5892 5892 5891 5890 5888 5887 5886 5884 5883 5881 5880 5879 5877 5876 5874 5873 5871 5869 5867 5866 5864 5863 5862 5861 5860 5858 5858 5857 5855 5854 5853 5852 5851 5849 5848 5847
5897 5896 5895 5895 5895 5893 5892 5891 5890 5889 5888 5887 5886 5884 5883 5881 5880 5878 5876 5875 5874 5872 5870 5869 5867 5865 5863 5861 5860 5858 5857 5856 5855 5854 5853 5851 5850 5849 5848 5846 5845 5844 5843
5894 5894 5893 5893 5892 5891 5890 5889 5888 5887 5886 5885 5884 5882 5881 5879 5877 5876 5874 5873 5871 5869 5868 5866 5864 5862 5860 5858 5856 5855 5854 5852 5851 5850 5848 5847 5846 5845 5843 5842 5840 5839 5838
5891 5891 5890 5890 5889 5888 5888 5887 5886 5885 5884 5883 5881 5880 5878 5877 5875 5874 5872 5870 5868 5866 5865 5863 5861 5858 5856 5854 5853 5851 5850 5848 5847 5845 5844 5843 5841 5840 5838 5837 5835 5834 5833
5888 5887 5887 5887 5886 5886 5885 5884 5883 5882 5881 5880 5878 5877 5876 5874 5872 5871 5869 5867 5865 5863 5861 5859 5857 5855 5852 5851 5849 5847 5846 5844 5843 5841 5839 5838 5836 5835 5833 5832 5830 5829 5828
5884 5883 5882 5882 5882 5882 5881 5881 5880 5878 5877 5876 5875 5874 5872 5871 5869 5867 5865 5864 5862 5860 5858 5856 5853 5851 5849 5847 5845 5843 5842 5840 5838 5837 5835 5833 5831 5830 5828 5827 5825 5824 5822
5879 5879 5879 5879 5878 5878 5877 5876 5875 5874 5873 5872 5871 5869 5868 5866 5864 5863 5861 5859 5857 5856 5854 5852 5849 5847 5845 5843 5841 5839 5838 5836 5834 5832 5830 5828 5826 5825 5823 5822 5820 5818 5817
5874 5875 5874 5874 5873 5873 5872 5872 5871 5870 5869 5867 5866 5865 5863 5862 5860 5858 5856 5855 5853 5851 5849 5847 5845 5842 5840 5838 5836 5834 5833 5831 5829 5827 5825 5823 5821 5819 5818 5816 5814 5812 5811
5869 5869 5869 5869 5868 5868 5867 5866 5865 5864 5863 5862 5860 5859 5858 5856 5854 5852 5851 5849 5847 5846 5844 5842 5839 5837 5835 5833 5831 5829 5827 5825 5823 5821 5819 5818 5816 5814 5812 5810 5808 5806 5804
5863 5863 5863 5863 5863 5862 5861 5860 5859 5858 5857 5856 5855 5853 5852 5850 5848 5847 5845 5843 5841 5840 5838 5836 5833 5831 5829 5826 5824 5822 5820 5819 5817 5815 5813 5811 5809 5808 5805 5803 5802 5800 5798
5856 5857 5857 5857 5856 5856 5855 5854 5853 5852 5851 5850 5848 5847 5845 5843 5841 5840 5838 5837 5835 5833 5831 5829 5827 5824 5822 5819 5816 5815 5813 5812 5810 5808 5806 5804 5802 5800 5798 5796 5794 5793 5791
5849 5849 5850 5850 5850 5849 5848 5847 5846 5845 5844 5843 5841 5840 5838 5837 5835 5833 5832 5830 5828 5826 5824 5822 5820 5818 5815 5813 5810 5808 5806 5804 5802 5801 5799 5796 5794 5792 5791 5789 5787 5785 5783
5841 5841 5842 5842 5842 5842 5841 5840 5839 5838 5837 5835 5834 5832 5831 5829 5827 5826 5824 5822 5820 5818 5817 5815 5812 5810 5808 5805 5803 5800 5798 5796 5795 5793 5791 5789 5787 5785 5782 5780 5779 5776 5774
5832 5833 5833 5833 5833 5833 5833 5832 5831 5830 5829 5827 5826 5824 5823 5821 5819 5817 5815 5813 5812 5810 5808 5806 5804 5802 5800 5798 5795 5793 5791 5789 5787 5785 5783 5781 5779 5776 5774 5772 5770 5768 5766
5823 5824 5824 5824 5825 5824 5824 5824 5823 5822 5820 5819 5818 5816 5814 5812 5810 5808 5806 5805 5803 5802 5800 5798 5796 5793 5792 5790 5787 5785 5783 5781 5778 5776 5774 5772 5770 5768 5766 5763 5761 5759 5757
5814 5814 5815 5815 5815 5815 5815 5815 5814 5813 5812 5810 5809 5807 5806 5804 5802 5800 5798 5796 5795 5793 5791 5789 5786 5784 5783 5781 5779 5777 5775 5772 5770 5767 5765 5763 5761 5759 5757 5755 5753 5751 5749
5804 5804 5805 5805 5805 5806 5806 5805 5805 5804 5803 5802 5800 5799 5797 5796 5794 5792 5790 5788 5786 5784 5782 5780 5778 5775 5774 5772 5770 5768 5765 5763 5761 5759 5757 5754 5752 5750 5748 5746 5744 5742 5740
Wind_Speed
13 13 13 13 12 12 12 11 10 9 9 8 9 8 7 6 6 5 6 6 6 6 6 7 7 7 6 6 6 7 7 8 7 8 8 8 9 10 11 11 12 12 12
11 12 13 13 12 12 12 12 11 9 9 8 8 8 8 7 7 7 6 6 6 6 7 7 8 7 7 7 7 7 8 8 8 8 8 9 9 10 11 12 12 12 12
10 11 11 12 12 12 12 11 11 10 9 9 9 9 8 8 8 8 8 7 7 7 7 8 9 8 8 8 8 8 8 9 9 9 9 9 10 10 11 11 11 12 12
9 10 10 11 11 11 11 11 11 11 10 10 9 9 9 9 9 8 8 8 8 8 8 9 9 9 9 9 9 9 9 9 9 9 10 10 10 10 11 11 12 12 12
8 9 10 10 11 11 11 11 11 10 10 10 10 9 9 9 10 10 9 9 9 9 9 10 10 10 10 10 11 10 10 10 11 11 11 12 12 12 12 12 12 12 13
9 9 10 10 11 11 10 10 11 11 10 10 10 10 10 10 10 10 10 10 9 9 10 11 11 11 11 11 12 12 11 11 11 12 13 13 13 13 13 13 12 13 14
9 9 10 11 11 11 10 10 11 11 11 11 10 11 11 11 11 10 10 11 11 11 12 12 13 13 13 12 12 12 12 12 12 13 13 14 14 14 14 14 14 14 15
10 10 10 11 11 11 10 10 11 11 12 11 11 11 12 12 11 11 11 12 12 13 14 14 14 14 13 13 13 12 13 13 13 13 14 14 15 15 15 15 15 15 16
11 11 11 11 11 11 10 9 11 11 12 11 12 12 13 12 12 12 12 13 13 14 14 15 15 15 14 14 14 14 14 14 14 14 15 15 15 15 16 16 16 16 17
12 12 11 12 12 12 12 11 11 11 12 12 12 13 13 13 13 13 13 13 14 14 15 16 16 16 16 15 15 15 15 15 15 15 15 16 16 16 16 16 17 17 18
13 12 12 13 13 13 13 13 13 13 13 13 13 14 14 13 14 14 14 14 15 15 16 17 17 17 17 16 16 16 16 16 17 16 17 17 17 17 18 18 18 18 19
14 14 14 14 14 14 13 13 14 14 14 14 15 15 14 15 15 15 15 15 16 16 17 17 18 18 18 17 17 17 18 18 18 18 18 18 18 18 19 19 19 19 19
15 16 15 15 15 15 15 15 15 15 16 15 15 16 16 16 15 15 15 16 16 17 17 18 19 19 19 19 18 19 19 19 19 19 19 19 19 19 19 19 20 19 19
15 16 17 16 16 17 17 17 17 17 17 17 17 17 17 16 16 16 17 17 18 18 19 19 19 20 20 19 20 20 20 19 19 19 19 19 19 19 19 20 20 20 21
17 18 18 18 18 19 19 18 18 19 19 19 19 19 19 18 18 18 18 19 19 20 20 21 21 22 22 21 21 21 20 20 20 20 20 20 20 20 20 21 21 21 22
19 19 19 20 20 20 20 20 20 20 21 20 21 21 21 20 19 19 20 21 21 22 22 22 22 22 22 22 22 21 21 21 21 21 21 21 21 20 20 21 21 22 22
21 21 21 22 22 22 22 22 22 22 22 22 22 22 22 22 22 21 22 22 23 23 24 24 24 24 23 23 22 22 22 22 22 22 22 21 21 21 21 21 21 22 22
23 23 23 23 23 23 24 24 24 24 24 24 24 24 24 24 23 23 23 23 24 25 25 25 25 24 24 24 24 25 25 25 24 24 24 24 23 22 22 22 23 23 23
24 24 25 25 25 25 26 25 25 25 25 25 25 25 24 25 25 25 25 25 25 25 25 25 25 25 26 26 26 26 25 25 25 26 26 25 25 25 25 24 24 24 24
26 26 26 26 26 27 27 26 26 26 26 26 26 26 26 26 25 25 25 25 26 25 26 26 26 27 27 26 26 26 26 26 26 27 27 26 27 27 27 27 26 26 25
29 28 27 27 27 28 28 27 27 27 27 28 27 27 26 26 26 27 27 27 27 27 27 27 27 28 28 28 27 26 26 26 26 26 26 26 27 27 28 28 28 28 27
30 30 29 29 29 29 29 28 28 28 29 29 29 28 28 28 28 28 28 29 29 29 29 29 29 29 29 29 28 27 26 26 27 27 27 27 27 28 28 28 29 29 29
32 31 31 31 30 30 30 30 30 30 31 31 31 30 30 30 30 30 30 30 29 29 29 29 29 29 29 30 29 28 28 28 28 28 28 28 29 29 29 29 29 29 29
33 33 33 33 32 32 31 32 32 32 32 33 34 33 32 31 31 30 30 30 30 30 30 30 30 30 29 30 29 29 28 29 29 29 29 29 29 29 30 30 30 30 29
35 35 35 35 34 33 33 33 33 33 33 34 35 34 32 32 31 32 32 32 32 31 31 31 30 30 29 28 30 30 30 30 30 30 30 30 30 31 31 31 30 30 29
35 36 36 36 36 35 35 34 34 33 34 34 34 34 34 34 34 33 33 33 33 32 32 32 31 31 31 31 31 31 31 31 31 31 31 31 31 31 31 31 30 29 29
Wind_Direction
30 31 32 34 36 36 35 33 31 28 27 27 26 26 24 20 15 11 9 7 3 356 348 343 336 325 316 310 308 301 292 286 284 284 282 282 280 275 272 272 275 276 277
27 27 27 32 32 30 29 28 25 23 23 22 18 16 16 15 14 11 6 360 355 352 348 344 339 332 323 320 312 306 298 290 287 289 286 286 285 283 278 276 276 278 278
19 20 18 20 22 23 23 21 19 18 19 14 10 6 5 7 7 6 1 356 353 351 347 346 344 339 330 321 314 308 301 295 291 290 286 285 287 286 284 286 285 284 280
8 12 13 13 12 12 13 14 12 10 8 7 5 4 2 359 357 357 355 354 352 348 346 342 339 337 331 322 315 308 304 300 296 295 293 291 291 290 289 289 287 286 285
350 357 1 1 2 2 2 2 2 1 359 358 358 358 357 355 353 351 347 346 344 342 340 338 333 329 327 325 325 319 310 303 298 295 293 292 291 292 292 290 290 288 286
336 342 345 349 350 350 350 350 351 351 351 350 349 348 349 348 347 346 344 342 340 340 337 334 331 324 319 317 319 316 314 308 301 297 295 293 292 293 292 291 290 289 288
324 327 330 335 338 338 340 341 342 342 341 342 340 342 343 343 341 340 340 338 337 336 334 333 330 324 320 317 317 314 310 311 308 304 300 297 295 294 293 293 291 290 291
312 313 315 321 327 329 329 331 333 335 334 335 334 335 335 334 333 333 333 333 332 331 332 329 327 325 322 320 317 312 309 309 309 308 304 301 299 297 295 294 294 293 292
305 306 307 314 319 316 318 324 331 330 330 330 328 329 329 328 327 327 326 328 330 329 329 329 327 325 322 318 315 311 308 306 305 305 304 304 303 302 298 294 293 291 291
299 301 304 310 312 310 315 321 327 327 329 327 324 323 324 323 322 322 322 324 325 326 326 327 326 324 321 317 315 312 310 307 304 303 303 302 301 302 302 299 294 291 292
295 297 298 302 306 309 311 316 317 317 319 318 318 318 318 319 320 318 319 321 322 323 323 323 323 321 319 319 315 311 308 306 303 300 299 298 299 298 300 299 298 296 294
287 290 294 299 301 302 306 308 309 312 311 312 313 315 316 316 315 315 316 317 317 318 318 319 320 319 319 317 315 312 307 304 302 299 297 298 299 298 299 297 297 297 295
281 285 288 292 294 296 300 302 304 305 305 306 308 310 310 310 310 313 316 318 318 317 316 317 318 317 315 315 313 311 307 305 303 301 298 299 300 299 298 298 299 299 297
277 279 284 288 290 292 294 297 300 300 300 300 302 304 306 306 305 308 311 316 318 317 316 315 315 315 312 311 308 309 307 305 304 304 302 302 301 301 301 301 301 300 299
274 277 279 285 288 289 291 293 296 296 297 297 298 298 300 301 302 305 309 311 312 313 314 314 313 313 312 309 307 306 306 307 305 305 304 303 301 301 300 301 301 300 300
273 275 279 282 284 285 286 289 291 292 294 296 296 298 298 301 301 302 304 307 308 309 310 310 312 311 309 307 306 305 305 306 305 303 300 299 299 300 300 300 300 300 299
272 273 277 279 280 281 284 287 290 292 293 294 296 300 300 299 297 297 299 303 305 306 307 307 308 308 307 304 302 303 304 304 304 304 300 298 298 300 300 299 301 301 301
270 272 275 277 278 279 282 285 288 289 290 292 294 298 299 300 297 297 297 297 300 302 303 303 304 304 304 302 300 300 301 301 301 301 300 297 296 297 297 298 298 300 301
268 271 273 276 278 279 281 282 285 286 288 291 293 295 297 298 297 295 295 295 297 299 300 302 303 302 302 300 299 299 298 299 300 300 298 295 295 296 295 296 297 297 298
268 270 272 275 278 280 280 281 283 283 285 289 291 293 294 295 293 293 294 295 295 296 298 300 301 301 301 300 298 296 297 297 298 299 297 295 296 296 295 294 294 294 294
268 269 271 274 276 278 279 280 282 282 284 287 289 290 292 295 294 294 294 293 293 294 294 296 298 299 298 298 297 296 296 296 297 297 298 297 297 297 296 295 294 293 293
267 268 270 273 274 275 277 278 279 281 283 286 287 288 289 290 292 292 292 292 292 293 293 294 295 296 296 296 294 293 294 295 294 295 297 297 297 296 296 295 294 294 292
266 266 268 270 272 273 274 276 278 280 282 284 284 286 287 288 290 292 292 292 292 292 292 293 294 293 294 294 292 292 294 293 294 295 297 297 296 296 296 295 294 293 292
265 265 266 268 269 272 273 275 278 281 282 282 284 285 286 287 288 289 290 291 293 292 291 292 293 292 292 293 293 293 294 295 295 295 296 296 295 295 295 295 294 292 292
263 265 265 267 269 270 273 275 278 280 282 283 284 285 285 286 288 290 291 291 294 296 294 292 292 292 292 293 294 293 294 294 295 295 294 293 293 294 294 294 293 292 291
263 264 265 267 269 269 271 275 277 279 281 283 284 285 286 288 289 292 294 295 297 298 296 294 292 291 291 294 295 295 294 294 295 295 295 293 292 292 293 293 291 290 290